Regional Weather Roundup
Issued by NWS

Home | Current Version | Previous Version | Graphics & Text | Print | Product List | Glossary On
Versions: 1 2 3 4 5 6 7 8 9 10 11 12 13 14 15 16 17 18 19 20 21 22 23 24 25 26 27 28 29 30 31 32 33 34 35 36 37 38 39 40 41 42 43 44 45 46 47 48 49 50
000
ASUS43 KBIS 191910
RWRND

NORTH DAKOTA REGIONAL WEATHER ROUNDUP
NATIONAL WEATHER SERVICE BISMARCK ND
100 PM CST THU JAN 19 2017

NOTE: "FAIR" INDICATES FEW OR NO CLOUDS BELOW 12,000 FEET WITH NO
SIGNIFICANT WEATHER AND/OR OBSTRUCTIONS TO VISIBILITY.


NDZ001>003-009>011-017-192000-
NORTHWEST NORTH DAKOTA

CITY           SKY/WX    TMP DP  RH WIND       PRES   REMARKS
WILLISTON      FAIR      30  20  66 SW5       29.47F
MINOT          FAIR      40  30  67 NW3       29.44F
MINOT AFB      CLOUDY    34  29  80 W6        29.43F
$$

NDZ018>021-031>035-040>046-192000-
SOUTHWEST NORTH DAKOTA

CITY           SKY/WX    TMP DP  RH WIND       PRES   REMARKS
BISMARCK       FAIR      23  17  78 E5        29.51F WCI  17
DICKINSON      FAIR      32  25  75 SW6       29.44F
GARRISON         N/A     24  19  81 CALM      29.47F
HETTINGER ARPT CLOUDY    29  22  75 NW8       29.47F
$$

NDZ004>008-012>016-024-026-027-054-192000-
NORTHEAST NORTH DAKOTA

CITY           SKY/WX    TMP DP  RH WIND       PRES   REMARKS
GRAND FORKS    CLOUDY    27  23  85 S16       29.55F WCI  15
GRND FRKS AFB  SUNNY     27  24  85 S10       29.54F WCI  18
DEVILS LAKE    FAIR      32  23  69 SW14      29.48F
$$

NDZ022-023-025-028>030-036>039-047>053-192000-
SOUTHEAST NORTH DAKOTA

CITY           SKY/WX    TMP DP  RH WIND       PRES   REMARKS
FARGO          SUNNY     36  33  89 S8        29.59F
JAMESTOWN      FAIR      25  21  85 S8        29.51F WCI  16
$$





USA.gov is the U.S. government's official web portal to all federal, state and local government web resources and services.